Wind_Speed
2 2 2 2 3 3 4 4 4 5 4 4 5 5 4 3 3 3 3 3 2 2 1 1 1 1 2 1 0 1 2 2 1 1 2 2 2 3 3 3 3 3 3
2 2 2 3 4 4 5 5 4 6 5 5 4 4 4 3 3 3 3 2 2 2 2 2 2 2 2 1 1 1 1 1 1 1 2 2 3 3 3 3 3 3 3
3 3 3 4 4 4 5 5 5 5 5 4 3 3 3 3 3 3 2 2 2 3 2 3 4 3 2 2 1 1 1 1 1 1 1 2 3 2 3 3 3 2 3
3 3 4 5 5 5 5 5 5 5 5 4 4 3 3 3 3 3 3 3 3 3 4 4 4 3 3 3 2 2 1 1 0 1 1 2 2 2 3 3 3 3 3
4 4 4 4 4 5 5 5 5 5 5 5 4 4 4 4 4 4 3 3 4 4 4 3 4 4 3 3 3 3 2 1 1 1 1 2 2 2 3 4 4 4 4
5 5 5 5 5 5 5 5 4 5 5 5 5 5 4 5 5 4 4 4 5 5 5 4 4 4 3 3 3 3 3 2 2 2 2 2 2 3 3 4 4 4 5
5 5 6 6 5 5 5 5 5 5 5 5 5 4 4 4 5 5 5 5 5 5 5 5 5 4 4 3 3 3 2 2 3 2 2 2 2 2 3 4 4 4 5
5 5 5 5 5 5 5 5 5 5 5 5 5 5 5 5 5 6 6 5 5 5 5 5 5 5 4 3 3 3 3 4 4 4 4 3 3 3 3 3 3 5 5
4 5 5 5 5 5 5 5 4 4 4 4 4 4 4 5 5 6 6 6 6 6 6 5 5 5 5 4 4 3 3 4 4 4 4 4 4 4 3 2 3 5 5
4 5 5 4 4 4 4 5 5 4 4 4 4 4 4 4 5 5 5 5 6 6 6 6 6 6 5 6 5 5 4 4 4 4 4 4 4 4 4 3 3 4 5
5 4 4 4 4 4 3 3 4 5 4 4 4 4 4 4 5 5 5 5 5 6 6 7 7 7 6 6 6 5 5 4 4 4 5 5 4 4 4 3 4 4 5
5 4 4 4 4 4 4 4 3 4 4 4 4 4 4 4 4 4 5 5 4 5 6 7 8 8 8 7 7 6 5 4 4 5 5 5 5 5 4 4 4 4 5
5 5 5 4 4 4 5 5 4 4 4 3 3 3 3 3 4 4 5 5 5 6 7 8 8 9 9 8 8 7 6 6 6 5 5 5 6 6 5 5 5 5 6
5 5 5 5 5 5 5 4 4 4 4 4 3 3 3 3 4 4 4 4 5 5 6 7 8 8 8 8 8 8 7 7 6 6 6 6 6 6 5 5 5 6 6
5 5 5 5 5 5 5 5 5 5 4 4 3 3 4 3 3 4 4 4 4 5 5 6 6 7 7 8 9 8 8 7 7 6 6 6 6 6 6 5 5 6 7
6 6 5 5 5 5 6 6 6 5 4 4 3 4 4 4 3 3 3 3 4 5 5 5 5 6 7 7 8 8 8 7 7 7 6 6 6 7 7 6 6 7 6
6 6 6 5 5 5 6 6 6 6 5 5 4 4 4 3 3 4 4 4 4 4 4 4 5 5 6 6 7 8 7 7 8 8 6 6 6 7 7 7 7 7 6
6 6 6 6 5 6 6 6 6 6 5 5 4 4 4 3 4 4 4 4 4 4 4 4 5 5 5 6 6 7 7 7 8 8 7 7 7 7 7 7 7 7 7
7 7 6 6 6 6 6 6 6 6 6 5 4 4 4 4 4 5 5 5 5 5 5 5 5 5 5 6 6 7 7 8 8 8 8 8 7 7 8 7 7 7 7
7 7 6 6 6 6 6 6 6 6 6 6 5 5 5 5 5 6 6 6 6 6 6 5 6 6 6 6 7 7 8 8 8 8 8 8 8 8 8 8 8 8 8
7 7 6 6 6 6 6 6 6 7 7 6 6 6 6 6 7 7 7 7 7 7 7 7 6 6 6 7 7 8 8 9 8 8 8 8 8 8 8 8 7 7 7
7 7 7 7 7 7 6 6 7 7 7 7 7 7 7 7 7 7 7 7 7 7 8 8 7 7 7 7 8 8 9 9 9 9 9 9 9 9 9 8 8 8 8
7 7 7 7 7 7 7 7 7 8 8 8 8 8 8 8 8 7 8 8 7 7 8 8 8 8 8 8 9 9 10 10 9 10 10 10 10 10 10 10 9 9 9
8 8 8 8 8 9 8 8 7 8 9 8 8 8 9 9 9 9 9 9 9 8 8 8 9 9 9 9 10 10 10 10 10 11 11 11 11 10 10 10 10 10 10
9 9 9 9 9 9 9 11 10 10 10 10 10 9 9 10 10 10 10 10 10 10 10 9 10 10 11 10 10 10 11 11 11 11 11 11 11 11 11 10 11 11 11
10 10 10 11 11 11 11 12 12 12 12 11 10 11 10 11 11 11 11 11 11 11 11 11 11 11 11 11 11 11 12 12 13 12 12 12 12 13 12 12 12 12 12
Wind_Direction
104 120 136 132 117 104 112 113 122 136 134 134 135 149 157 152 146 137 139 134 119 103 97 52 41 55 58 96 221 249 227 236 233 250 255 269 286 296 307 299 294 299 299
113 123 121 122 121 111 108 107 104 115 115 121 125 133 140 140 136 134 132 125 111 96 85 60 53 73 65 43 352 316 321 232 265 274 267 276 299 308 310 306 310 315 319
111 110 103 105 113 104 104 105 106 106 100 111 112 118 127 128 120 117 116 106 87 79 69 55 65 74 74 60 27 344 314 277 272 275 263 274 291 299 311 309 309 311 322
89 88 86 102 108 110 110 110 101 95 90 99 88 82 89 99 102 96 86 84 77 68 64 58 61 69 74 67 49 30 14 355 283 275 287 274 293 295 296 304 305 303 309
92 84 86 91 100 108 108 107 97 85 87 88 84 82 81 84 90 86 77 75 70 70 67 66 73 66 61 58 54 49 45 46 22 331 325 294 288 293 296 301 303 301 304
94 91 87 87 95 104 107 102 99 89 88 89 85 88 88 89 84 81 74 76 74 74 70 70 65 61 56 57 54 50 51 41 22 357 351 334 302 295 299 301 297 295 299
99 95 93 87 89 97 105 103 103 93 90 94 86 81 87 83 77 76 73 74 72 70 66 59 53 51 50 52 40 42 40 30 25 15 15 4 345 325 317 304 291 296 296
102 100 97 93 87 92 103 104 99 93 92 91 82 86 78 72 70 64 65 63 65 63 58 54 45 48 42 35 36 47 41 35 30 25 20 13 3 353 327 313 308 308 301
102 105 102 98 95 99 102 95 87 88 92 83 80 79 71 66 59 61 59 60 61 59 55 49 39 38 39 37 39 38 36 31 25 21 16 16 13 8 0 349 332 325 319
98 106 102 97 92 93 89 83 79 79 81 79 75 73 68 59 55 59 58 58 57 56 53 45 43 45 41 42 42 40 38 31 25 23 12 10 9 6 2 346 333 325 324
90 95 83 84 80 79 80 83 79 76 74 73 68 61 61 55 55 57 59 57 59 58 54 49 50 48 42 38 41 44 44 44 33 31 24 20 13 10 4 349 340 336 323
75 85 85 80 71 59 55 60 79 78 76 73 66 59 58 55 51 50 51 56 61 54 47 43 43 46 45 38 42 45 43 43 40 34 28 23 17 7 356 350 343 337 330
76 80 78 75 67 53 48 46 59 68 71 64 65 60 57 53 45 43 49 49 52 43 41 40 41 44 46 44 41 39 34 35 38 37 29 24 16 6 357 351 346 339 334
74 75 70 66 59 47 43 34 41 54 56 49 47 47 49 41 38 43 47 42 40 37 39 41 42 43 44 42 42 38 32 31 28 27 23 20 14 9 5 358 349 344 341
56 62 57 53 54 47 38 26 28 40 39 37 41 44 40 36 39 43 45 37 31 31 36 38 39 39 38 37 35 31 26 27 26 23 17 13 13 10 5 2 353 347 348
52 51 47 38 35 36 31 23 30 32 29 32 32 32 32 32 25 20 20 22 18 21 28 26 30 32 32 29 28 25 22 20 18 12 11 11 10 9 5 3 356 348 352
48 45 37 30 26 25 23 22 27 28 28 27 23 21 20 18 12 2 358 5 6 4 11 6 12 16 13 16 19 19 16 14 10 3 359 359 359 0 359 356 354 351 351
42 39 31 24 23 15 15 12 17 18 16 15 15 14 9 1 354 351 351 346 346 346 350 350 352 356 358 0 2 4 3 2 2 357 355 352 350 350 348 348 347 345 346
37 32 26 17 8 2 10 15 14 10 7 4 0 2 353 342 340 338 336 327 330 336 336 337 339 342 342 342 343 350 353 351 349 347 348 348 347 343 344 342 339 341 341
30 25 20 12 6 5 4 2 0 358 355 353 348 345 337 334 330 324 322 322 327 328 328 326 330 333 333 336 337 340 343 344 342 341 341 344 348 344 340 339 339 341 337
19 17 14 11 8 6 1 356 354 350 345 340 341 344 339 330 324 320 318 318 318 319 324 320 318 321 325 329 330 330 333 338 336 335 335 337 339 337 335 332 334 335 331
11 9 5 4 1 356 350 343 341 341 337 332 332 337 338 334 324 319 317 312 311 312 315 320 319 318 319 321 323 324 326 328 330 329 329 329 330 332 333 330 326 325 325
5 2 359 357 354 347 343 338 333 334 334 329 330 335 331 327 322 312 310 308 308 307 307 310 314 316 317 316 316 318 319 321 323 322 322 323 325 327 328 327 318 317 317
355 354 351 351 349 344 342 337 332 334 336 333 330 327 322 318 313 310 306 304 303 303 304 304 309 309 308 308 310 312 315 317 319 317 316 315 315 317 318 318 315 314 312
344 344 343 344 343 343 340 339 334 334 333 329 328 322 315 315 313 308 306 301 298 298 299 299 304 305 304 302 304 308 311 312 312 311 311 312 312 312 310 310 310 311 312
335 336 337 337 339 341 339 336 334 333 333 330 330 326 319 315 312 308 307 300 295 295 296 295 299 301 303 302 300 302 305 307 310 309 309 307 307 308 306 306 305 306 306
Height
5876 5875 5875 5875 5875 5875 5875 5875 5876 5876 5876 5876 5877 5877 5878 5878 5879 5879 5880 5880 5880 5880 5880 5879 5879 5879 5879 5879 5879 5880 5880 5881 5882 5882 5882 5883 5883 5883 5884 5884 5884 5885 5885
5876 5876 5876 5876 5876 5876 5877 5877 5877 5877 5878 5877 5878 5878 5879 5879 5879 5880 5880 5880 5880 5880 5880 5880 5880 5879 5880 5880 5880 5880 5880 5881 5881 5882 5882 5883 5883 5883 5883 5884 5884 5885 5885
5877 5877 5877 5876 5877 5877 5878 5878 5879 5879 5879 5879 5879 5879 5879 5880 5880 5880 5881 5881 5881 5881 5881 5880 5880 5880 5880 5880 5880 5880 5880 5881 5881 5882 5882 5882 5883 5883 5883 5884 5884 5884 5884
5879 5878 5878 5877 5878 5879 5879 5880 5880 5880 5880 5881 5880 5880 5880 5881 5881 5881 5881 5881 5881 5881 5881 5881 5881 5881 5881 5881 5881 5881 5881 5881 5881 5882 5882 5882 5882 5883 5883 5883 5883 5884 5884
5880 5880 5879 5879 5880 5880 5881 5881 5882 5882 5882 5882 5882 5882 5882 5882 5882 5882 5882 5882 5882 5882 5882 5882 5881 5881 5881 5881 5881 5881 5881 5881 5881 5882 5882 5882 5882 5882 5882 5883 5883 5883 5883
5881 5881 5881 5881 5882 5882 5882 5883 5883 5883 5883 5883 5883 5883 5884 5883 5883 5884 5883 5883 5883 5883 5882 5882 5882 5882 5881 5881 5881 5881 5881 5881 5881 5881 5881 5881 5881 5882 5882 5882 5882 5882 5883
5883 5882 5882 5883 5883 5883 5884 5884 5884 5884 5885 5885 5885 5885 5885 5885 5885 5885 5884 5884 5884 5883 5883 5883 5883 5882 5882 5881 5881 5881 5881 5881 5881 5881 5881 5881 5881 5881 5881 5881 5881 5882 5882
5884 5884 5884 5884 5884 5885 5885 5885 5885 5886 5886 5886 5886 5886 5886 5886 5886 5886 5885 5885 5884 5884 5883 5883 5883 5882 5882 5881 5880 5880 5880 5880 5881 5881 5881 5881 5881 5881 5881 5881 5881 5881 5881
5885 5885 5886 5886 5886 5886 5886 5887 5887 5887 5887 5887 5887 5887 5887 5887 5887 5887 5886 5885 5885 5885 5885 5884 5883 5882 5881 5880 5880 5880 5880 5880 5881 5881 5881 5881 5881 5880 5880 5880 5880 5880 5880
5887 5887 5887 5887 5888 5888 5888 5888 5888 5888 5888 5888 5889 5889 5889 5889 5888 5888 5887 5887 5886 5886 5885 5885 5884 5883 5881 5881 5880 5879 5880 5880 5881 5881 5881 5881 5880 5880 5880 5880 5880 5880 5880
5888 5888 5889 5889 5889 5889 5889 5889 5889 5890 5890 5890 5890 5890 5890 5890 5889 5889 5888 5888 5888 5887 5886 5886 5884 5883 5882 5881 5880 5880 5880 5881 5881 5881 5881 5881 5881 5880 5880 5880 5880 5879 5879
5890 5890 5890 5890 5891 5891 5891 5891 5890 5891 5891 5891 5891 5891 5891 5891 5891 5890 5890 5889 5889 5888 5888 5887 5885 5884 5883 5882 5881 5881 5881 5881 5882 5882 5882 5881 5881 5880 5880 5880 5879 5879 5878
5891 5891 5891 5892 5892 5892 5892 5892 5892 5892 5892 5892 5892 5892 5892 5892 5892 5891 5891 5890 5890 5889 5889 5888 5886 5885 5884 5884 5883 5882 5882 5882 5882 5882 5882 5882 5881 5880 5880 5879 5879 5878 5878
5893 5893 5893 5893 5893 5893 5893 5893 5893 5893 5893 5893 5893 5893 5893 5893 5893 5892 5892 5891 5891 5890 5890 5889 5888 5887 5887 5886 5885 5884 5884 5883 5883 5883 5882 5882 5881 5881 5880 5879 5878 5878 5877
5894 5894 5894 5894 5894 5894 5895 5894 5894 5894 5894 5894 5894 5894 5894 5893 5893 5893 5893 5892 5892 5891 5891 5890 5890 5889 5888 5887 5886 5886 5885 5884 5884 5883 5883 5882 5882 5881 5880 5880 5879 5878 5877
5896 5896 5896 5896 5896 5896 5896 5895 5895 5895 5895 5895 5895 5894 5894 5894 5894 5894 5894 5893 5893 5892 5892 5891 5891 5890 5889 5888 5888 5886 5886 5885 5885 5884 5883 5883 5882 5881 5881 5880 5879 5878 5877
5897 5897 5897 5897 5897 5897 5897 5896 5896 5896 5896 5896 5895 5895 5895 5895 5895 5894 5894 5894 5894 5893 5893 5892 5892 5891 5890 5889 5888 5888 5887 5886 5885 5884 5884 5883 5882 5881 5881 5880 5879 5878 5877
5899 5899 5899 5899 5898 5898 5897 5897 5897 5897 5896 5896 5896 5896 5895 5895 5895 5895 5894 5894 5893 5893 5893 5893 5892 5891 5891 5890 5889 5888 5887 5886 5886 5885 5884 5883 5882 5881 5880 5879 5878 5877 5876
5900 5900 5899 5899 5899 5899 5898 5898 5897 5897 5897 5896 5896 5896 5895 5895 5895 5894 5894 5894 5893 5893 5893 5892 5891 5891 5890 5890 5889 5888 5887 5886 5885 5884 5883 5882 5881 5881 5880 5878 5878 5877 5876
5902 5901 5900 5900 5899 5899 5899 5898 5898 5897 5897 5896 5896 5896 5895 5895 5894 5894 5894 5893 5893 5893 5892 5891 5891 5890 5890 5889 5888 5888 5887 5886 5885 5884 5883 5882 5880 5879 5879 5878 5877 5876 5875
5903 5902 5901 5900 5900 5900 5899 5898 5898 5897 5897 5896 5895 5895 5895 5894 5894 5893 5893 5893 5892 5892 5891 5891 5890 5889 5889 5888 5887 5887 5886 5885 5884 5883 5882 5881 5879 5878 5877 5877 5876 5875 5874
5903 5902 5901 5901 5900 5900 5899 5898 5897 5897 5896 5896 5895 5895 5894 5893 5893 5892 5892 5892 5891 5891 5890 5890 5889 5888 5888 5887 5886 5886 5885 5884 5883 5882 5881 5879 5878 5877 5876 5875 5874 5873 5873
5904 5903 5902 5901 5900 5899 5899 5898 5897 5896 5896 5895 5895 5894 5893 5893 5892 5891 5891 5890 5890 5890 5889 5889 5888 5887 5886 5886 5885 5884 5883 5882 5881 5880 5879 5878 5877 5876 5875 5874 5873 5872 5871
5904 5903 5902 5901 5900 5899 5898 5898 5896 5896 5895 5894 5894 5893 5892 5891 5890 5890 5889 5888 5888 5888 5887 5887 5886 5885 5885 5884 5883 5882 5881 5880 5879 5878 5877 5876 5875 5874 5873 5872 5871 5870 5869
5904 5903 5902 5901 5900 5899 5897 5897 5896 5895 5894 5893 5892 5891 5891 5890 5889 5888 5887 5887 5886 5886 5885 5885 5884 5884 5883 5882 5881 5880 5879 5878 5877 5875 5874 5873 5873 5872 5871 5870 5869 5868 5867
5904 5903 5902 5901 5900 5899 5897 5896 5895 5894 5893 5892 5891 5890 5889 5888 5887 5886 5885 5885 5884 5883 5883 5882 5882 5881 5880 5879 5879 5878 5877 5876 5874 5873 5872 5871 5870 5869 5868 5868 5867 5866 5865